[[{"header":{"parameterUnit":"m.s-1","parameterCategory":2,"la1":30.2991,"la2":30.254,"lo1":-89.0895,"lo2":-89.0444,"dy":0.0017,"dx":0.0017,"nx":28,"ny":28,"refTime":"2023-10-06T03:00:00:Z","depth":"0","parameterNumber":2,"parameterNumberName":"U-component_of_CURRENTS"},"data":[0,0,0,0,0,0,0,0,0,0,0,0,0,0,0,0,0,0,0,0,0,0,0,0,0,0,0,0,0,0,0,0,0,0,0,0,0,0,0,0,0,0,0,0,0,0,0,0,0,0,0,0,0,0,0,0,0,0,0.4178,0.4178,0,0.4171,0.417,0.417,0.4172,0.4173,0.4173,0.4174,0.4076,0.4073,0.407,0,0,0,0,0,0,0,0,0,0,0,0,0,0.4124,0.4125,0.4178,0.4178,0.4179,0.4171,0.417,0.417,0.4172,0.4173,0.4173,0.4174,0.4077,0.4073,0.4069,0,0,0,0,0,0,0,0,0,0,0,0,0,0.4132,0.4126,0.4178,0.4182,0.4182,0.4171,0.417,0.417,0.4172,0.4173,0.4174,0.4174,0.4078,0.4073,0.4069,0.4024,0,0,0.4055,0.4053,0,0,0,0,0,0,0,0,0.4131,0.4133,0.4181,0.4182,0.4182,0.4177,0.4116,0.4118,0.4172,0.4172,0.4174,0.4175,0.4103,0.4096,0.4089,0.402,0.4015,0.4054,0.4051,0.4049,0.4048,0,0,0,0,0,0,0,0.4131,0.4133,0.4171,0.4181,0.4182,0.416,0.4162,0.4116,0.4128,0.4172,0.4173,0.4178,0.4102,0.4093,0.4086,0.4014,0.4054,0.405,0.4047,0.4045,0.3977,0.3978,0,0,0,0,0,0,0.4143,0.4133,0.4171,0.4171,0.4163,0.4161,0.4163,0.4174,0.4131,0.4127,0.4178,0.4179,0.4101,0.4092,0.4083,0.4036,0.4049,0.4045,0.4042,0.3976,0.3977,0.3978,0,0,0,0,0,0,0.4142,0.4147,0.4172,0.4155,0.4157,0.4162,0.4174,0.4174,0.4171,0.4137,0.4131,0.4176,0.4101,0.4089,0.4062,0.4032,0.4043,0.4039,0.3975,0.3976,0.3978,0.3936,0,0,0,0,0,0,0.414,0.4146,0.4135,0.4156,0.4159,0.4157,0.4174,0.4173,0.4175,0.4175,0.4133,0.4125,0.4101,0.407,0.4058,0.4025,0.4035,0.3973,0.3975,0.3977,0.3936,0.3936,0.3935,0,0,0,0,0,0.4139,0.4121,0.4134,0.4138,0.4151,0.4157,0.4155,0.4158,0.4174,0.416,0.4156,0.4126,0.4074,0.4066,0.4052,0.4018,0.3973,0.3975,0.3977,0.3936,0.3936,0.3935,0,0,0,0,0,0,0.4073,0.4121,0.4136,0.4129,0.4141,0.4159,0.4139,0.4159,0.4145,0.4149,0.4125,0.4116,0.4082,0.407,0.4064,0.4014,0.4022,0.4022,0.3996,0.3995,0.3995,0.4006,0.4031,0,0,0,0,0,0.406,0.4067,0.4106,0.4094,0.4103,0.4125,0.4122,0.4141,0.4144,0.4139,0.4121,0.4106,0.4078,0.4056,0.4033,0.3991,0.4016,0.397,0.397,0.3969,0.3975,0.3995,0.3996,0.3985,0.3985,0.3985,0,0,0.4027,0.4055,0.4055,0.4081,0.4089,0.4088,0.4123,0.413,0.4126,0.4127,0.4102,0.4096,0.4073,0.4036,0.4019,0.4018,0.3991,0.3972,0.3971,0.3977,0.3997,0.3998,0.3999,0.3987,0.3986,0.3986,0,0,0.399,0.3997,0.4006,0.4015,0.4045,0.4053,0.406,0.4091,0.4098,0.4085,0.4094,0.4083,0.4034,0.4019,0.4001,0.3988,0.3993,0.3983,0.3971,0.3989,0.399,0.399,0.4039,0.4045,0.3976,0.3976,0.3976,0,0.3952,0.3974,0.4,0.401,0.4008,0.4039,0.4041,0.4041,0.406,0.4067,0.4073,0.4052,0.4022,0.3992,0.399,0.3979,0.4013,0.3961,0.3986,0.3987,0.3988,0.4038,0.4044,0.3974,0.3975,0.3975,0.3975,0,0.3938,0.3944,0.3941,0.3966,0.3957,0.3961,0.3979,0.3976,0.399,0.4008,0.4007,0.3997,0.3995,0.3975,0.3965,0.3961,0.3992,0.3984,0.3978,0.3986,0.404,0.4047,0.3972,0.3973,0.3973,0.3973,0,0,0.3899,0.3933,0.3934,0.394,0.3944,0.3942,0.3917,0.3925,0.3928,0.3942,0.3952,0.3919,0.3958,0.3947,0.395,0.3953,0.3982,0.3972,0.3974,0.4006,0.4057,0.3958,0.3957,0.3979,0.3979,0.398,0.4095,0,0.3889,0.3916,0.392,0.3901,0.3911,0.3904,0.388,0.3883,0.3887,0.3898,0.3917,0.3923,0.3935,0.3943,0.3953,0.3987,0.3998,0.3954,0.4058,0.4062,0.3959,0.396,0.368,0.3748,0.4103,0.4104,0.4105,0,0.3886,0.3907,0.3913,0.3905,0.3905,0.3884,0.386,0.385,0.3858,0.3871,0.3896,0.3922,0.3955,0.395,0.4029,0.4009,0.4031,0.4048,0.4052,0.3978,0.3974,0.3796,0.3748,0.3657,0.4116,0.4115,0.4114,0,0.3884,0.3892,0.39,0.3895,0.3888,0.3875,0.3863,0.3854,0.3849,0.3872,0.3884,0.3936,0.3972,0.402,0.4065,0.406,0.4141,0.4139,0.4074,0.407,0.3859,0.3834,0.3714,0.4167,0.4167,0.4167,0.4166,0,0.3882,0.3886,0.3905,0.3909,0.389,0.3887,0.3865,0.3858,0.3862,0.3856,0.3897,0.3913,0.3987,0.4038,0.4081,0.4109,0.4167,0.4076,0.4081,0.384,0.3812,0.3746,0.3745,0.4171,0.417,0.4169,0.4169,0,0.3879,0.3903,0.39,0.39,0.3893,0.3881,0.3855,0.3831,0.3863,0.3857,0.3869,0.3921,0.401,0.4072,0.4147,0.4117,0.4014,0.4131,0.3856,0.3824,0.3662,0.367,0.3477,0.3382,0.4098,0.4096,0.4094,0,0.3886,0.3891,0.3883,0.3858,0.3855,0.384,0.3806,0.3822,0.3797,0.3854,0.3843,0.3933,0.3951,0.4043,0.3998,0.4041,0.3963,0.3787,0.3697,0.3606,0.3621,0.3514,0.3442,0.3429,0.3422,0.3416,0.3411,0,0.386,0.3858,0.3843,0.3803,0.3767,0.3736,0.3711,0.3694,0.371,0.3714,0.372,0.3749,0.3818,0.3712,0.3747,0.3728,0.3555,0.3671,0.3622,0.3118,0.2945,0.287,0.3451,0.3361,0.3366,0.3369,0.3372,0.3374,0.3807,0.3774,0.3737,0.3671,0.3641,0.359,0.3506,0.3502,0.3458,0.3371,0.3518,0.3445,0.3434,0.344,0.341,0.3147,0.3259,0.3006,0.3044,0.2961,0.2768,0.3255,0.3134,0.3138,0.3141,0.3144,0.3146,0,0.367,0.3635,0.3588,0.3487,0.3388,0.3436,0.3368,0.3245,0.3121,0.3133,0.3081,0.2984,0.2865,0.2856,0.264,0.2502,0.2375,0.2447,0.2218,0.2201,0.2654,0.252,0.2199,0.2199,0.2199,0.2199,0.22,0.22,0.3588,0.3479,0.3429,0.3215,0.3155,0.2968,0.2892,0.2776,0.273,0.2531,0.2413,0.2429,0.2479,0.2329,0.2102,0.2039,0.1926,0.1771,0.1922,0.2231,0.2286,0.2337,0.2207,0.1826,0.1826,0.126,0.1256,0.1253]},{"header":{"parameterUnit":"m.s-1","parameterCategory":2,"la1":30.2991,"la2":30.254,"lo1":-89.0895,"lo2":-89.0444,"dy":0.0017,"dx":0.0017,"nx":28,"ny":28,"refTime":"2023-10-06T03:00:00:Z","depth":"0","parameterNumber":3,"parameterNumberName":"V-component_of_CURRENTS"},"data":[0,0,0,0,0,0,0,0,0,0,0,0,0,0,0,0,0,0,0,0,0,0,0,0,0,0,0,0,0,0,0,0,0,0,0,0,0,0,0,0,0,0,0,0,0,0,0,0,0,0,0,0,0,0,0,0,0,0,-0.1151,-0.1153,0,-0.126,-0.1261,-0.1263,-0.1294,-0.1294,-0.1293,-0.1293,-0.1284,-0.1284,-0.1285,0,0,0,0,0,0,0,0,0,0,0,0,0,-0.102,-0.1022,-0.1151,-0.1153,-0.1154,-0.126,-0.1262,-0.1263,-0.1294,-0.1294,-0.1293,-0.1293,-0.1284,-0.1284,-0.1285,0,0,0,0,0,0,0,0,0,0,0,0,0,-0.1096,-0.1022,-0.1151,-0.1184,-0.1188,-0.126,-0.1262,-0.1263,-0.1295,-0.1294,-0.1293,-0.1292,-0.1284,-0.1284,-0.1285,-0.1301,0,0,-0.1286,-0.1286,0,0,0,0,0,0,0,0,-0.1092,-0.1101,-0.1177,-0.1181,-0.1186,-0.1264,-0.1212,-0.127,-0.1295,-0.1253,-0.1293,-0.1292,-0.1268,-0.127,-0.1291,-0.13,-0.13,-0.1286,-0.1286,-0.1286,-0.1286,0,0,0,0,0,0,0,-0.1087,-0.1097,-0.1193,-0.1179,-0.1184,-0.121,-0.1219,-0.1224,-0.126,-0.1256,-0.1259,-0.1274,-0.1269,-0.1291,-0.1291,-0.13,-0.1286,-0.1286,-0.1286,-0.1286,-0.14,-0.1403,0,0,0,0,0,0,-0.1074,-0.1092,-0.119,-0.1197,-0.1138,-0.1213,-0.1223,-0.1239,-0.1262,-0.1267,-0.1274,-0.1275,-0.1291,-0.1291,-0.1291,-0.1306,-0.1286,-0.1286,-0.1286,-0.1397,-0.14,-0.1403,0,0,0,0,0,0,-0.1071,-0.1082,-0.1185,-0.1147,-0.1162,-0.1215,-0.1233,-0.1241,-0.1267,-0.1277,-0.1279,-0.1291,-0.1291,-0.129,-0.1334,-0.1305,-0.1286,-0.1287,-0.1394,-0.1398,-0.1402,-0.1338,0,0,0,0,0,0,-0.1067,-0.108,-0.1081,-0.1147,-0.1164,-0.1233,-0.1234,-0.1244,-0.1277,-0.1279,-0.1292,-0.1291,-0.129,-0.1334,-0.1335,-0.1305,-0.1287,-0.139,-0.1396,-0.1401,-0.1336,-0.1339,-0.1342,0,0,0,0,0,-0.1062,-0.1088,-0.108,-0.1092,-0.1165,-0.1234,-0.1245,-0.1279,-0.1278,-0.1297,-0.1329,-0.129,-0.1368,-0.1337,-0.1337,-0.1306,-0.1387,-0.1394,-0.14,-0.1335,-0.1339,-0.1342,0,0,0,0,0,0,-0.104,-0.1096,-0.1088,-0.1129,-0.117,-0.1239,-0.1264,-0.1283,-0.1324,-0.1321,-0.1328,-0.1331,-0.1357,-0.1369,-0.1336,-0.1369,-0.137,-0.1377,-0.1321,-0.1324,-0.1327,-0.1275,-0.1287,0,0,0,0,0,-0.103,-0.1052,-0.1109,-0.1133,-0.1158,-0.1205,-0.1233,-0.1256,-0.1305,-0.1322,-0.1331,-0.1357,-0.1386,-0.1385,-0.1415,-0.1426,-0.1413,-0.1416,-0.1419,-0.142,-0.1388,-0.1412,-0.1411,-0.1424,-0.1424,-0.1424,0,0,-0.1024,-0.1057,-0.1068,-0.1127,-0.1161,-0.1183,-0.1221,-0.127,-0.1259,-0.1312,-0.131,-0.1366,-0.1401,-0.1423,-0.1433,-0.142,-0.1407,-0.1428,-0.1428,-0.1394,-0.1418,-0.1416,-0.1413,-0.1429,-0.1428,-0.1427,0,0,-0.1043,-0.1057,-0.1087,-0.1116,-0.1167,-0.118,-0.1192,-0.1255,-0.1256,-0.1282,-0.1322,-0.138,-0.1399,-0.1429,-0.1443,-0.1487,-0.1432,-0.1493,-0.1435,-0.146,-0.1456,-0.1453,-0.1397,-0.139,-0.1479,-0.1479,-0.1479,0,-0.1038,-0.1069,-0.1107,-0.114,-0.1146,-0.1171,-0.1189,-0.1191,-0.1251,-0.1238,-0.127,-0.1357,-0.1395,-0.1418,-0.144,-0.1479,-0.146,-0.1402,-0.1454,-0.1451,-0.1449,-0.1393,-0.1385,-0.1476,-0.1477,-0.1477,-0.1477,0,-0.1078,-0.109,-0.1115,-0.1132,-0.1142,-0.1169,-0.1167,-0.1144,-0.114,-0.1158,-0.1194,-0.1293,-0.1327,-0.1371,-0.1407,-0.142,-0.1397,-0.1458,-0.1421,-0.1442,-0.1384,-0.1376,-0.1473,-0.1474,-0.1474,-0.1475,0,0,-0.1106,-0.1137,-0.114,-0.1117,-0.1137,-0.1139,-0.1083,-0.1055,-0.0984,-0.1067,-0.1023,-0.1148,-0.1205,-0.1231,-0.131,-0.135,-0.1327,-0.1382,-0.1384,-0.1278,-0.1308,-0.1114,-0.1087,-0.1389,-0.1388,-0.1388,-0.1256,0,-0.1124,-0.114,-0.116,-0.1126,-0.1119,-0.1085,-0.1015,-0.0975,-0.0941,-0.0895,-0.0999,-0.1023,-0.1145,-0.1171,-0.1228,-0.1315,-0.1312,-0.1352,-0.1343,-0.1341,-0.1129,-0.1075,-0.101,-0.0872,-0.1249,-0.1248,-0.1247,0,-0.1156,-0.1147,-0.1127,-0.106,-0.1055,-0.1025,-0.087,-0.0824,-0.0751,-0.0731,-0.0773,-0.0844,-0.0922,-0.1031,-0.1138,-0.1152,-0.12,-0.1273,-0.127,-0.1098,-0.1134,-0.0927,-0.0845,-0.0949,-0.1236,-0.1237,-0.1238,0,-0.1103,-0.1117,-0.1071,-0.1062,-0.0996,-0.0939,-0.0886,-0.078,-0.069,-0.0636,-0.0578,-0.0692,-0.0727,-0.085,-0.0972,-0.1053,-0.1046,-0.1181,-0.1038,-0.1023,-0.0965,-0.0944,-0.094,-0.1211,-0.1211,-0.1211,-0.1212,0,-0.1091,-0.1053,-0.1039,-0.1002,-0.089,-0.0887,-0.074,-0.0662,-0.0567,-0.0435,-0.0515,-0.044,-0.0689,-0.0713,-0.0862,-0.0866,-0.0946,-0.097,-0.0969,-0.0938,-0.0917,-0.1006,-0.1084,-0.1206,-0.1207,-0.1208,-0.1209,0,-0.101,-0.1023,-0.0944,-0.0883,-0.0855,-0.076,-0.0639,-0.0513,-0.0448,-0.0267,-0.0252,-0.0248,-0.0251,-0.0417,-0.0569,-0.0671,-0.0739,-0.0719,-0.0606,-0.0591,-0.0569,-0.0645,-0.0552,-0.0567,-0.0551,-0.0545,-0.054,0,-0.0958,-0.0916,-0.0824,-0.0747,-0.0717,-0.0603,-0.0487,-0.0428,-0.0292,-0.0121,-0.0014,0.0026,0.0139,0.005,-0.0134,-0.0247,-0.0452,-0.0271,-0.0432,-0.0483,-0.0573,-0.0652,-0.0683,-0.0338,-0.0331,-0.0327,-0.0322,0,-0.0819,-0.0789,-0.0707,-0.0547,-0.044,-0.0328,-0.0196,-0.0078,0.0044,0.0202,0.0406,0.049,0.047,0.0417,0.0296,0.0157,-0.0282,-0.0165,-0.0302,-0.0423,-0.0431,-0.0472,-0.0466,-0.0278,-0.0283,-0.0286,-0.0288,-0.029,-0.0673,-0.0574,-0.0452,-0.0297,-0.018,-0.0034,0.0096,0.0242,0.047,0.0725,0.0745,0.0943,0.0806,0.067,0.0495,0.0208,0.0118,0.004,-0.0047,-0.0121,-0.0129,0.0067,0.0305,0.0304,0.0303,0.0302,0.0302,0,-0.045,-0.0352,-0.0203,-0.0008,0.0151,0.0138,0.0336,0.0478,0.0772,0.0982,0.1173,0.1278,0.1142,0.0852,0.0497,0.0299,0.011,0.0156,-0.005,-0.0094,0.0004,0.0017,0.0308,0.0308,0.0308,0.0308,0.0308,0.0308,-0.0299,-0.011,-0.0044,0.0267,0.0381,0.0585,0.0691,0.088,0.1053,0.1365,0.1524,0.1609,0.144,0.0753,0.0292,0.0177,-0.0057,0.0003,-0.0127,-0.0194,-0.0217,-0.024,-0.025,-0.0021,-0.0021,-0.0232,-0.0234,-0.0236]}],[{"header":{"parameterUnit":"m.s-1","parameterCategory":2,"la1":30.2991,"la2":30.254,"lo1":-89.0895,"lo2":-89.0444,"dy":0.0017,"dx":0.0017,"nx":28,"ny":28,"refTime":"2023-10-06T03:00:00:Z","depth":"2","parameterNumber":2,"parameterNumberName":"U-component_of_CURRENTS"},"data":[0,0,0,0,0,0,0,0,0,0,0,0,0,0,0,0,0,0,0,0,0,0,0,0,0,0,0,0,0,0,0,0,0,0,0,0,0,0,0,0,0,0,0,0,0,0,0,0,0,0,0,0,0,0,0,0,0,0,0.1876,0.1876,0,0.1882,0.1882,0.1882,0.1876,0.1876,0.1876,0.1876,0.1942,0.1944,0.1946,0,0,0,0,0,0,0,0,0,0,0,0,0,0.1927,0.1926,0.1876,0.1876,0.1877,0.1882,0.1882,0.1882,0.1876,0.1876,0.1876,0.1876,0.1941,0.1943,0.1946,0,0,0,0,0,0,0,0,0,0,0,0,0,0.1915,0.1925,0.1876,0.1875,0.1875,0.1882,0.1882,0.1882,0.1876,0.1876,0.1876,0.1876,0.1941,0.1943,0.1946,0.1967,0,0,0.1955,0.1956,0,0,0,0,0,0,0,0,0.1916,0.1913,0.1875,0.1875,0.1875,0.1879,0.1924,0.1914,0.1877,0.1875,0.1876,0.1876,0.1927,0.1931,0.193,0.197,0.1973,0.1955,0.1957,0.1958,0.1959,0,0,0,0,0,0,0,0.1916,0.1913,0.1878,0.1875,0.1876,0.1897,0.1895,0.1922,0.1903,0.1875,0.1875,0.1877,0.1928,0.1928,0.1932,0.1974,0.1955,0.1957,0.1959,0.196,0.2044,0.2044,0,0,0,0,0,0,0.1914,0.1913,0.1877,0.1878,0.1896,0.1896,0.1893,0.1877,0.1901,0.1904,0.1877,0.1877,0.1923,0.1929,0.1934,0.2005,0.1958,0.196,0.1962,0.2043,0.2044,0.2044,0,0,0,0,0,0,0.1915,0.191,0.1877,0.1898,0.1895,0.1895,0.1878,0.1878,0.1889,0.1902,0.1906,0.189,0.1923,0.1931,0.1957,0.2006,0.1962,0.1964,0.2043,0.2043,0.2044,0.2119,0,0,0,0,0,0,0.1916,0.191,0.191,0.1897,0.1894,0.1901,0.1878,0.1878,0.189,0.189,0.1915,0.192,0.1923,0.1952,0.1959,0.2009,0.1966,0.2042,0.2043,0.2044,0.2116,0.2122,0.2128,0,0,0,0,0,0.1917,0.1919,0.1909,0.1906,0.1889,0.1902,0.1903,0.1902,0.1892,0.1909,0.1907,0.1919,0.1964,0.1955,0.1963,0.2015,0.2041,0.2043,0.2044,0.2113,0.2121,0.2128,0,0,0,0,0,0,0.1924,0.1918,0.1907,0.1901,0.1909,0.1902,0.1922,0.1912,0.1923,0.1931,0.1926,0.1931,0.1978,0.1974,0.1963,0.2037,0.2006,0.2009,0.2056,0.2064,0.2069,0.2091,0.1969,0,0,0,0,0,0.1928,0.1938,0.1928,0.1926,0.1935,0.1929,0.1937,0.194,0.1943,0.1948,0.1951,0.1962,0.1988,0.2005,0.2025,0.2065,0.2073,0.21,0.2106,0.2111,0.2132,0.2159,0.217,0.2048,0.2048,0.2048,0,0,0.1934,0.1928,0.1936,0.1932,0.1939,0.1965,0.1934,0.1962,0.198,0.1957,0.1983,0.1992,0.2002,0.2046,0.2067,0.2051,0.2151,0.2113,0.2118,0.2135,0.2161,0.2174,0.2184,0.2049,0.2049,0.2049,0,0,0.1944,0.1944,0.1956,0.1979,0.1999,0.2007,0.2018,0.2021,0.2022,0.2056,0.2036,0.2071,0.21,0.2115,0.2128,0.2179,0.2184,0.2178,0.2233,0.2259,0.227,0.228,0.2317,0.2329,0.218,0.218,0.218,0,0.1978,0.1961,0.1965,0.1988,0.2019,0.2028,0.2061,0.207,0.2076,0.2078,0.2083,0.2125,0.2146,0.2187,0.2209,0.2202,0.2206,0.221,0.227,0.228,0.2289,0.2324,0.2337,0.2184,0.2183,0.2183,0.2183,0,0.1971,0.1998,0.2017,0.2053,0.208,0.2129,0.2141,0.2145,0.2161,0.2177,0.222,0.2239,0.2265,0.2278,0.2273,0.2333,0.2313,0.2278,0.2259,0.2306,0.2339,0.2352,0.2189,0.2188,0.2187,0.2186,0,0,0.1997,0.2021,0.2035,0.2059,0.2135,0.2147,0.2181,0.221,0.2226,0.2264,0.2294,0.2357,0.2369,0.2383,0.2372,0.2402,0.2487,0.2372,0.2372,0.2422,0.2549,0.2455,0.2459,0.245,0.2453,0.2454,0.2552,0,0.2022,0.2053,0.207,0.214,0.2171,0.2204,0.223,0.2256,0.2294,0.2325,0.2362,0.2412,0.2407,0.2429,0.2465,0.2466,0.2519,0.2464,0.2485,0.2486,0.2407,0.247,0.2252,0.2313,0.2564,0.2566,0.2567,0,0.201,0.2043,0.2098,0.2161,0.2179,0.2226,0.2267,0.2303,0.2353,0.2378,0.2437,0.2464,0.2526,0.2517,0.2583,0.2539,0.2572,0.258,0.2582,0.248,0.2414,0.2302,0.2325,0.2587,0.2585,0.2584,0.2583,0,0.1979,0.2062,0.2102,0.214,0.2213,0.2231,0.2275,0.2322,0.2355,0.2427,0.2468,0.253,0.2579,0.261,0.2644,0.2616,0.2712,0.2669,0.2627,0.2621,0.2435,0.2407,0.2754,0.2754,0.2754,0.2754,0.2753,0,0.1994,0.2028,0.2092,0.2127,0.2166,0.2232,0.229,0.2309,0.24,0.2448,0.2513,0.254,0.2606,0.2655,0.2674,0.2685,0.2743,0.2663,0.2644,0.2453,0.2427,0.2653,0.264,0.2757,0.2757,0.2756,0.2755,0,0.1946,0.1993,0.2036,0.2124,0.2151,0.2177,0.2287,0.2326,0.2413,0.2475,0.2504,0.2582,0.2622,0.2682,0.2744,0.2721,0.2737,0.2739,0.2517,0.2469,0.2627,0.2617,0.2697,0.2695,0.2693,0.2691,0.2689,0,0.1921,0.1945,0.2017,0.2039,0.2089,0.2155,0.2197,0.2303,0.2358,0.2464,0.2484,0.2569,0.2575,0.2644,0.2622,0.2649,0.2724,0.2467,0.2378,0.2651,0.2625,0.2617,0.261,0.2174,0.2169,0.2164,0.2161,0,0.1896,0.1916,0.195,0.1992,0.2038,0.2074,0.2157,0.219,0.2306,0.2358,0.2392,0.2413,0.2475,0.2378,0.2433,0.2406,0.2432,0.2374,0.2726,0.2208,0.2161,0.2134,0.2143,0.212,0.2124,0.2127,0.2129,0.2131,0.1867,0.1869,0.1911,0.1934,0.1977,0.1981,0.1969,0.2054,0.2096,0.214,0.2228,0.2199,0.2222,0.2165,0.2097,0.2051,0.2225,0.2124,0.2137,0.2155,0.2063,0.2012,0.1929,0.1932,0.1934,0.1936,0.1938,0,0.1831,0.1826,0.1858,0.186,0.1856,0.1905,0.193,0.1896,0.1883,0.1956,0.1978,0.1813,0.1759,0.179,0.1659,0.1654,0.1624,0.1578,0.1529,0.1571,0.1608,0.1486,0.1201,0.1198,0.1196,0.1194,0,0,0.1792,0.1781,0.1789,0.1736,0.1746,0.1687,0.1663,0.1625,0.164,0.1599,0.1587,0.171,0.1753,0.1473,0.1427,0.1296,0.1419,0.1231,0.1826,0.1813,0.1847,0.1931,0.1791,0,0,0,0,0]},{"header":{"parameterUnit":"m.s-1","parameterCategory":2,"la1":30.2991,"la2":30.254,"lo1":-89.0895,"lo2":-89.0444,"dy":0.0017,"dx":0.0017,"nx":28,"ny":28,"refTime":"2023-10-06T03:00:00:Z","depth":"2","parameterNumber":3,"parameterNumberName":"V-component_of_CURRENTS"},"data":[0,0,0,0,0,0,0,0,0,0,0,0,0,0,0,0,0,0,0,0,0,0,0,0,0,0,0,0,0,0,0,0,0,0,0,0,0,0,0,0,0,0,0,0,0,0,0,0,0,0,0,0,0,0,0,0,0,0,0.0598,0.0598,0,0.0588,0.0588,0.0588,0.056,0.056,0.0559,0.0559,0.0482,0.048,0.0479,0,0,0,0,0,0,0,0,0,0,0,0,0,0.0541,0.0542,0.0598,0.0598,0.0598,0.0588,0.0588,0.0588,0.056,0.056,0.0559,0.0559,0.0482,0.048,0.0478,0,0,0,0,0,0,0,0,0,0,0,0,0,0.0551,0.0543,0.0598,0.0584,0.0583,0.0589,0.0588,0.0588,0.0561,0.056,0.0559,0.0558,0.0483,0.0481,0.0478,0.0479,0,0,0.0471,0.047,0,0,0,0,0,0,0,0,0.0551,0.0553,0.0586,0.0585,0.0583,0.0576,0.054,0.0548,0.0561,0.0568,0.0559,0.0558,0.0508,0.0504,0.0503,0.0475,0.0472,0.0471,0.0469,0.0468,0.0468,0,0,0,0,0,0,0,0.055,0.0553,0.0593,0.0586,0.0585,0.056,0.0561,0.0541,0.054,0.0567,0.0565,0.0566,0.0507,0.0505,0.0501,0.0471,0.0471,0.0469,0.0467,0.0466,0.0459,0.046,0,0,0,0,0,0,0.0557,0.0553,0.0593,0.0593,0.0566,0.0562,0.0563,0.0578,0.0542,0.0536,0.0567,0.0565,0.051,0.0504,0.0498,0.0499,0.0468,0.0466,0.0465,0.0458,0.0459,0.0461,0,0,0,0,0,0,0.0557,0.0562,0.0594,0.0572,0.0575,0.0565,0.0581,0.0578,0.0574,0.0543,0.0536,0.0565,0.0509,0.0501,0.0483,0.0496,0.0465,0.0463,0.0456,0.0458,0.046,0.05,0,0,0,0,0,0,0.0555,0.0562,0.0579,0.0574,0.0577,0.0594,0.0582,0.0579,0.0576,0.0573,0.0538,0.0531,0.0508,0.0487,0.0481,0.0492,0.0461,0.0455,0.0457,0.0459,0.0497,0.0503,0.0508,0,0,0,0,0,0.0553,0.0579,0.058,0.0585,0.0599,0.0595,0.0594,0.0582,0.0577,0.0575,0.0557,0.0532,0.0497,0.0485,0.0478,0.0489,0.0454,0.0456,0.0459,0.0494,0.0502,0.0508,0,0,0,0,0,0,0.0568,0.0579,0.0579,0.0609,0.0601,0.059,0.0592,0.0585,0.0571,0.0565,0.0538,0.0529,0.052,0.0504,0.0491,0.0498,0.0475,0.0477,0.0505,0.0511,0.0517,0.0525,0.0459,0,0,0,0,0,0.058,0.0599,0.0597,0.062,0.0615,0.0604,0.0603,0.0592,0.0579,0.0572,0.0558,0.0542,0.0528,0.0518,0.0503,0.05,0.0472,0.0507,0.0513,0.0517,0.0522,0.0496,0.0499,0.047,0.047,0.047,0,0,0.0587,0.0601,0.0608,0.0623,0.0615,0.0617,0.0601,0.0595,0.0606,0.0565,0.0577,0.0555,0.0532,0.0531,0.0527,0.0516,0.051,0.0521,0.0525,0.0527,0.0499,0.0501,0.0504,0.0472,0.0471,0.0471,0,0,0.0615,0.0625,0.0646,0.0636,0.0631,0.0626,0.0625,0.0617,0.062,0.0619,0.0603,0.0587,0.0571,0.0562,0.0552,0.058,0.0539,0.0583,0.0614,0.0589,0.0591,0.0592,0.0551,0.0548,0.0587,0.0588,0.0588,0,0.0615,0.0653,0.0649,0.0658,0.0651,0.0632,0.0637,0.0643,0.0635,0.0644,0.0625,0.0614,0.0586,0.0591,0.0602,0.059,0.0566,0.0587,0.0594,0.0595,0.0595,0.0553,0.055,0.059,0.059,0.0589,0.0589,0,0.0653,0.0672,0.0677,0.0688,0.0684,0.0676,0.0676,0.0691,0.0689,0.0686,0.0691,0.0659,0.065,0.0646,0.0626,0.0632,0.061,0.06,0.0573,0.06,0.0555,0.055,0.0593,0.0592,0.0592,0.0591,0,0,0.0666,0.0696,0.0696,0.0703,0.069,0.0691,0.0718,0.0733,0.0759,0.0744,0.0764,0.074,0.0718,0.0708,0.0688,0.067,0.0641,0.0642,0.0639,0.0593,0.0575,0.0538,0.0528,0.0633,0.0633,0.0632,0.0538,0,0.0686,0.0728,0.073,0.0745,0.0754,0.0741,0.0773,0.0782,0.0788,0.0807,0.0778,0.0778,0.0745,0.0738,0.0714,0.0665,0.0633,0.0667,0.0564,0.056,0.0516,0.0524,0.0547,0.0463,0.0533,0.0532,0.0532,0,0.0722,0.0742,0.0772,0.0789,0.0789,0.0794,0.0829,0.0846,0.0866,0.0874,0.0863,0.0838,0.0814,0.0777,0.0697,0.0722,0.0651,0.0605,0.06,0.0549,0.0515,0.045,0.0452,0.0523,0.0524,0.0525,0.0525,0,0.0754,0.0772,0.0802,0.0795,0.0812,0.0827,0.0835,0.0863,0.0892,0.0907,0.0925,0.0886,0.0867,0.0788,0.0691,0.0693,0.0592,0.0576,0.0472,0.0467,0.0458,0.0454,0.0507,0.0507,0.0507,0.0507,0.0508,0,0.0782,0.0797,0.0817,0.0821,0.0861,0.0846,0.0885,0.0916,0.0933,0.0973,0.0949,0.0971,0.087,0.0805,0.0704,0.0574,0.0594,0.0474,0.0444,0.0472,0.0471,0.0505,0.0506,0.0504,0.0505,0.0505,0.0506,0,0.0811,0.0829,0.0854,0.0868,0.088,0.0899,0.0919,0.0952,0.0973,0.1025,0.1032,0.1019,0.0945,0.0832,0.0697,0.0592,0.0471,0.0415,0.0447,0.0422,0.0354,0.0359,0.0284,0.0282,0.0281,0.0279,0.0278,0,0.083,0.0852,0.0886,0.0909,0.0911,0.0933,0.0968,0.0986,0.102,0.1065,0.1097,0.1045,0.103,0.0812,0.0638,0.0448,0.0432,0.0316,0.0319,0.0355,0.0333,0.034,0.0347,0.0317,0.0316,0.0315,0.0315,0,0.0843,0.0861,0.0877,0.0936,0.0971,0.1014,0.105,0.1088,0.1121,0.1168,0.1202,0.1184,0.1013,0.0834,0.0579,0.0451,0.035,0.0294,0.0328,0.0372,0.0379,0.0359,0.0366,0.0309,0.0309,0.031,0.031,0.031,0.0842,0.0858,0.0894,0.0946,0.1002,0.1075,0.1108,0.1158,0.1218,0.1269,0.1257,0.1223,0.1049,0.0721,0.0513,0.0292,0.0313,0.0219,0.0224,0.0229,0.0252,0.0256,0.0166,0.0166,0.0166,0.0165,0.0165,0,0.0825,0.0858,0.0901,0.0966,0.1024,0.1065,0.1152,0.1182,0.1251,0.1298,0.1305,0.1114,0.0931,0.072,0.0406,0.0213,0.0217,0.0128,0.0189,0.0197,0.0203,0.0228,0.0133,0.0132,0.0131,0.0131,0,0,0.0819,0.0852,0.0872,0.0958,0.1012,0.1087,0.1135,0.1207,0.125,0.1268,0.124,0.121,0.0985,0.0737,0.0499,0.0316,0.029,0.0267,0.0317,0.0426,0.0434,0.0282,0.0331,0,0,0,0,0]}],[{"header":{"parameterUnit":"m.s-1","parameterCategory":2,"la1":30.2991,"la2":30.254,"lo1":-89.0895,"lo2":-89.0444,"dy":0.0017,"dx":0.0017,"nx":28,"ny":28,"refTime":"2023-10-06T03:00:00:Z","depth":"4","parameterNumber":2,"parameterNumberName":"U-component_of_CURRENTS"},"data":[0,0,0,0,0,0,0,0,0,0,0,0,0,0,0,0,0,0,0,0,0,0,0,0,0,0,0,0,0,0,0,0,0,0,0,0,0,0,0,0,0,0,0,0,0,0,0,0,0,0,0,0,0,0,0,0,0,0,0.102,0.1021,0,0.1038,0.1038,0.1038,0.1053,0.1053,0.1053,0.1054,0.1089,0.1089,0.109,0,0,0,0,0,0,0,0,0,0,0,0,0,0.0983,0.0984,0.102,0.1021,0.1021,0.1038,0.1038,0.1038,0.1053,0.1053,0.1053,0.1054,0.1088,0.1089,0.109,0,0,0,0,0,0,0,0,0,0,0,0,0,0.0998,0.0984,0.102,0.1032,0.1033,0.1038,0.1038,0.1038,0.1053,0.1053,0.1053,0.1054,0.1088,0.1089,0.109,0.1087,0,0,0.1093,0.1093,0,0,0,0,0,0,0,0,0.0998,0.1,0.103,0.1031,0.1032,0.1045,0.1038,0.1056,0.1052,0.1043,0.1054,0.1054,0.1076,0.1078,0.1078,0.1088,0.109,0.1093,0.1094,0.1094,0.1094,0,0,0,0,0,0,0,0.0997,0.0999,0.1026,0.103,0.1032,0.103,0.1033,0.1041,0.1056,0.1044,0.1046,0.105,0.1077,0.1077,0.1079,0.109,0.1093,0.1094,0.1094,0.1095,0.1171,0.1173,0,0,0,0,0,0,0.0998,0.0998,0.1025,0.1026,0.1018,0.1031,0.1034,0.1039,0.1056,0.1059,0.105,0.1051,0.1075,0.1078,0.108,0.1146,0.1094,0.1095,0.1095,0.117,0.1172,0.1173,0,0,0,0,0,0,0.0997,0.1,0.1024,0.1014,0.1017,0.1031,0.1037,0.1039,0.1063,0.106,0.1063,0.1074,0.1076,0.1079,0.1107,0.1145,0.1095,0.1096,0.1168,0.117,0.1172,0.1234,0,0,0,0,0,0,0.0996,0.1,0.1016,0.1014,0.1018,0.1045,0.1037,0.1039,0.1064,0.1066,0.1081,0.1084,0.1076,0.1105,0.1108,0.1145,0.1097,0.1166,0.1169,0.1172,0.123,0.1238,0.1244,0,0,0,0,0,0.0995,0.1011,0.1017,0.1021,0.1035,0.1046,0.1049,0.1059,0.1065,0.1081,0.109,0.1084,0.1125,0.1107,0.1109,0.1148,0.1165,0.1168,0.1172,0.1227,0.1236,0.1244,0,0,0,0,0,0,0.1,0.1014,0.102,0.104,0.1052,0.105,0.1071,0.1074,0.1092,0.1105,0.1097,0.11,0.1141,0.1135,0.1115,0.1179,0.1147,0.1151,0.1188,0.1197,0.1204,0.1205,0.1098,0,0,0,0,0,0.1009,0.103,0.1037,0.1056,0.1067,0.1074,0.1085,0.1093,0.1103,0.1113,0.1117,0.1132,0.1152,0.1166,0.1177,0.1208,0.121,0.1237,0.1245,0.1251,0.1254,0.1288,0.1298,0.1184,0.1184,0.1184,0,0,0.1017,0.1028,0.1041,0.106,0.1074,0.1088,0.1083,0.1111,0.1126,0.1114,0.1143,0.1158,0.1166,0.1202,0.1221,0.1205,0.1287,0.1255,0.126,0.126,0.1292,0.1303,0.1313,0.1186,0.1186,0.1185,0,0,0.1031,0.1057,0.1074,0.109,0.1117,0.112,0.1134,0.1146,0.1162,0.1185,0.119,0.1224,0.1241,0.126,0.127,0.1324,0.1324,0.1338,0.1378,0.1411,0.1421,0.1429,0.1456,0.1466,0.1342,0.1343,0.1343,0,0.1039,0.106,0.1081,0.11,0.112,0.1137,0.1158,0.1172,0.119,0.1212,0.1204,0.126,0.1267,0.1323,0.1343,0.1342,0.1359,0.1343,0.1421,0.1429,0.1437,0.1462,0.1472,0.1346,0.1346,0.1345,0.1345,0,0.1057,0.1083,0.1099,0.1127,0.1152,0.1179,0.12,0.123,0.1249,0.1259,0.132,0.1331,0.1369,0.1382,0.1378,0.1448,0.1443,0.1426,0.1398,0.1452,0.1475,0.1485,0.1351,0.135,0.1349,0.1348,0,0,0.1049,0.1099,0.1107,0.113,0.1175,0.1193,0.1237,0.1277,0.1314,0.134,0.1388,0.143,0.1452,0.1465,0.148,0.1506,0.1575,0.1495,0.1496,0.152,0.1656,0.1546,0.1546,0.1578,0.158,0.1582,0.1653,0,0.1057,0.1087,0.1119,0.1163,0.1184,0.1232,0.1267,0.1313,0.1351,0.1399,0.144,0.1487,0.148,0.1515,0.1546,0.1571,0.1603,0.1557,0.16,0.1602,0.1496,0.1554,0.1587,0.166,0.1663,0.1664,0.1665,0,0.1059,0.1083,0.1121,0.1185,0.1203,0.1237,0.1319,0.1355,0.1431,0.1465,0.1531,0.1557,0.1628,0.1598,0.1678,0.1654,0.1665,0.1669,0.1672,0.1551,0.1509,0.1593,0.1683,0.1681,0.168,0.1679,0.1678,0,0.1028,0.1086,0.1118,0.114,0.121,0.1256,0.1305,0.1382,0.1434,0.1522,0.1569,0.1641,0.1691,0.1722,0.1746,0.1725,0.1811,0.1778,0.1689,0.1682,0.1731,0.1721,0.1825,0.1825,0.1825,0.1825,0.1825,0,0.101,0.1042,0.1113,0.1131,0.1189,0.1253,0.1329,0.1386,0.1485,0.1543,0.1612,0.1663,0.1726,0.1778,0.1782,0.1772,0.1849,0.1706,0.1695,0.1756,0.1749,0.1739,0.1728,0.1828,0.1827,0.1827,0.1826,0,0.0966,0.1008,0.1056,0.1142,0.1173,0.1223,0.1343,0.1394,0.1495,0.1579,0.1614,0.1713,0.1769,0.1817,0.1866,0.181,0.1811,0.1786,0.1864,0.1855,0.165,0.1642,0.1689,0.1686,0.1683,0.1681,0.1679,0,0.0943,0.0959,0.1054,0.1089,0.1136,0.1218,0.1268,0.1383,0.1435,0.1587,0.1612,0.1717,0.176,0.1757,0.1803,0.1812,0.1781,0.1769,0.1688,0.1652,0.1638,0.1634,0.1629,0.1675,0.1674,0.1673,0.1672,0,0.0906,0.0948,0.0988,0.1054,0.1117,0.1171,0.1254,0.1287,0.1411,0.152,0.1573,0.1605,0.1663,0.1687,0.1712,0.1708,0.1768,0.174,0.1744,0.1668,0.1635,0.1623,0.1622,0.1663,0.1664,0.1665,0.1666,0,0.089,0.0907,0.0963,0.1016,0.1083,0.1105,0.1155,0.1214,0.128,0.1439,0.1451,0.1557,0.1649,0.1635,0.1658,0.1649,0.1608,0.1536,0.155,0.1561,0.1481,0.1419,0.1381,0,0,0,0,0,0.0869,0.0878,0.0922,0.0966,0.1024,0.1057,0.1136,0.1185,0.1298,0.1301,0.1377,0.1421,0.1458,0.151,0.1473,0.1588,0.161,0.1536,0.1532,0.161,0.1621,0.1537,0,0,0,0,0,0,0.0857,0.0892,0.0899,0.0909,0.0929,0.0974,0.1017,0.1089,0.109,0.1214,0.1242,0.1334,0.139,0.1473,0.145,0.1464,0.1429,0.1603,0.1599,0.1604,0.1614,0.1623,0.154,0,0,0,0,0]},{"header":{"parameterUnit":"m.s-1","parameterCategory":2,"la1":30.2991,"la2":30.254,"lo1":-89.0895,"lo2":-89.0444,"dy":0.0017,"dx":0.0017,"nx":28,"ny":28,"refTime":"2023-10-06T03:00:00:Z","depth":"4","parameterNumber":3,"parameterNumberName":"V-component_of_CURRENTS"},"data":[0,0,0,0,0,0,0,0,0,0,0,0,0,0,0,0,0,0,0,0,0,0,0,0,0,0,0,0,0,0,0,0,0,0,0,0,0,0,0,0,0,0,0,0,0,0,0,0,0,0,0,0,0,0,0,0,0,0,0.0487,0.0487,0,0.0489,0.0489,0.0489,0.0488,0.0488,0.0488,0.0488,0.0472,0.0471,0.0471,0,0,0,0,0,0,0,0,0,0,0,0,0,0.0467,0.0467,0.0487,0.0487,0.0487,0.0489,0.0489,0.0489,0.0488,0.0488,0.0488,0.0488,0.0472,0.0471,0.0471,0,0,0,0,0,0,0,0,0,0,0,0,0,0.0474,0.0467,0.0487,0.0486,0.0486,0.0489,0.0489,0.0489,0.0488,0.0488,0.0488,0.0488,0.0472,0.0471,0.0471,0.0471,0,0,0.047,0.0469,0,0,0,0,0,0,0,0,0.0473,0.0474,0.0487,0.0486,0.0486,0.0488,0.0476,0.0482,0.0488,0.0488,0.0488,0.0488,0.0475,0.0474,0.0476,0.0471,0.047,0.0469,0.0469,0.0469,0.0469,0,0,0,0,0,0,0,0.0473,0.0474,0.0489,0.0486,0.0486,0.0481,0.0482,0.0477,0.0483,0.0488,0.0488,0.0487,0.0475,0.0477,0.0476,0.047,0.0469,0.0469,0.0469,0.0469,0.0474,0.0475,0,0,0,0,0,0,0.0472,0.0474,0.0489,0.0489,0.0479,0.0481,0.0482,0.0488,0.0483,0.0482,0.0487,0.0487,0.0478,0.0476,0.0475,0.0496,0.0469,0.0469,0.0468,0.0474,0.0474,0.0475,0,0,0,0,0,0,0.0472,0.0474,0.0488,0.048,0.0482,0.0482,0.0488,0.0488,0.0496,0.0483,0.0481,0.0495,0.0477,0.0476,0.0479,0.0495,0.0468,0.0468,0.0473,0.0474,0.0474,0.0525,0,0,0,0,0,0,0.0472,0.0474,0.0486,0.0481,0.0482,0.0493,0.0488,0.0488,0.0495,0.0495,0.0489,0.0487,0.0477,0.0479,0.0478,0.0494,0.0467,0.0473,0.0474,0.0474,0.0523,0.0527,0.0531,0,0,0,0,0,0.0471,0.0483,0.0487,0.0489,0.0497,0.0493,0.0493,0.0493,0.0495,0.0499,0.0498,0.0488,0.0484,0.048,0.0478,0.0494,0.0472,0.0473,0.0474,0.0521,0.0526,0.0531,0,0,0,0,0,0,0.0482,0.0484,0.0488,0.0502,0.05,0.0493,0.05,0.0499,0.0502,0.0506,0.0494,0.0492,0.0499,0.0488,0.0484,0.0496,0.0476,0.0477,0.0512,0.0517,0.0521,0.0524,0.0467,0,0,0,0,0,0.049,0.0503,0.0498,0.0511,0.0511,0.0509,0.0511,0.0509,0.0507,0.0509,0.0508,0.0505,0.0501,0.0503,0.0496,0.0506,0.0478,0.0513,0.0518,0.0521,0.0522,0.0496,0.0498,0.0478,0.0478,0.0478,0,0,0.0497,0.0502,0.0509,0.0515,0.0516,0.0523,0.051,0.0515,0.0528,0.0507,0.0529,0.0518,0.0505,0.0515,0.0517,0.051,0.0512,0.0523,0.0526,0.0525,0.0497,0.0499,0.05,0.0479,0.0479,0.0478,0,0,0.0516,0.0523,0.0539,0.0539,0.0543,0.054,0.0543,0.0542,0.0549,0.0562,0.0551,0.0551,0.0551,0.0546,0.0542,0.0565,0.0532,0.0563,0.0593,0.0568,0.0569,0.057,0.0534,0.0531,0.057,0.057,0.057,0,0.0524,0.0549,0.0542,0.0555,0.0562,0.0549,0.0565,0.0568,0.0571,0.0582,0.0575,0.0577,0.0567,0.0574,0.0583,0.0575,0.0549,0.0577,0.0573,0.0574,0.0574,0.0537,0.0533,0.0573,0.0572,0.0572,0.0572,0,0.055,0.0574,0.0582,0.0599,0.0601,0.0612,0.0609,0.062,0.0627,0.063,0.0642,0.0626,0.0626,0.0624,0.0612,0.0612,0.0589,0.0579,0.0562,0.0579,0.0538,0.0534,0.0576,0.0575,0.0575,0.0574,0,0,0.0557,0.0595,0.0601,0.0621,0.0627,0.0631,0.0651,0.0665,0.0683,0.0685,0.0704,0.0698,0.0687,0.0681,0.0663,0.0645,0.0622,0.0617,0.0614,0.0583,0.0555,0.0509,0.0499,0.061,0.061,0.0609,0.0525,0,0.0583,0.0629,0.0637,0.0674,0.0693,0.069,0.0708,0.0717,0.0724,0.0737,0.0724,0.0731,0.071,0.0709,0.0689,0.0637,0.0612,0.0645,0.0542,0.0538,0.0497,0.0493,0.0608,0.0522,0.052,0.052,0.0519,0,0.0605,0.0636,0.0685,0.0722,0.0728,0.0746,0.077,0.0782,0.079,0.0798,0.0798,0.0781,0.0761,0.0737,0.0661,0.0681,0.0624,0.0579,0.0575,0.0511,0.0483,0.0501,0.051,0.0511,0.0511,0.0512,0.0512,0,0.0617,0.0667,0.0713,0.0724,0.0758,0.0782,0.0794,0.0806,0.0824,0.0832,0.0843,0.0815,0.0798,0.0731,0.0644,0.0651,0.0545,0.0541,0.0443,0.0438,0.0484,0.0484,0.0481,0.0481,0.0481,0.0481,0.0481,0,0.064,0.0675,0.0728,0.0752,0.0796,0.0804,0.0846,0.0855,0.0872,0.0889,0.0873,0.0869,0.0795,0.0729,0.0649,0.0525,0.0545,0.0441,0.0414,0.0506,0.051,0.048,0.0481,0.0478,0.0479,0.0479,0.048,0,0.0642,0.0684,0.0734,0.0788,0.0808,0.0833,0.088,0.0905,0.0916,0.0935,0.0938,0.0904,0.0815,0.0725,0.0603,0.0525,0.0416,0.0367,0.0462,0.0443,0.0325,0.033,0.025,0.0248,0.0246,0.0244,0.0242,0,0.0648,0.068,0.0755,0.0786,0.0817,0.0862,0.0896,0.0927,0.0948,0.0948,0.0951,0.0886,0.0847,0.064,0.0545,0.0379,0.0356,0.0291,0.0317,0.0319,0.0301,0.0309,0.0316,0.0239,0.0239,0.0238,0.0238,0,0.0647,0.0681,0.0719,0.0789,0.0841,0.0891,0.0937,0.0955,0.0976,0.0998,0.0946,0.0855,0.0749,0.0615,0.0483,0.0368,0.033,0.027,0.0273,0.0298,0.0306,0.0291,0.0301,0.0231,0.0232,0.0233,0.0233,0,0.0634,0.0657,0.0717,0.0769,0.0836,0.0886,0.0922,0.0939,0.0958,0.0957,0.0935,0.0839,0.0792,0.0607,0.0488,0.0367,0.0339,0.0294,0.0296,0.0302,0.0344,0.0363,0.0277,0,0,0,0,0,0.0613,0.0638,0.069,0.0749,0.0818,0.0861,0.0928,0.0959,0.0988,0.0947,0.0938,0.0839,0.0658,0.0592,0.0461,0.045,0.0319,0.029,0.0268,0.0193,0.0201,0.0237,0,0,0,0,0,0,0.0598,0.0644,0.0672,0.072,0.0758,0.0833,0.0881,0.0911,0.0887,0.0899,0.0811,0.0781,0.0616,0.0726,0.0448,0.0415,0.0376,0.0219,0.0216,0.0188,0.0196,0.0202,0.0242,0,0,0,0,0]}]]